This demonstration page uses our WeatherBlox Daily Observations layout. Learn more.

Left ArrowRight Arrow

Hourly Observations for July 28, 2016

Temp ( °F °C ) Dew Point ( °F °C ) Humidity (%) Winds ( mph kmh ) Pressure ( in mb ) Visibility ( mi km ) Precip ( " mm )
12:51 am 00:51 Cloudy 82 27.8 59 15 46 46 E 10 17 29.83 1010 10 16 0.00 0.00
1:28 am 01:28 Mostly Cloudy with Nearby Thunderstorms 80 26.7 61 16.1 52 52 SSE 13 20 29.85 1011 10 16 0.00 0.00
1:43 am 01:43 Mostly Cloudy 80 26.7 61 16.1 52 52 SSE 10 17 29.85 1011 10 16 0.00 0.00
1:51 am 01:51 Mostly Cloudy 80 26.7 61 16.1 52 52 SE 9 15 29.86 1011 10 16 0.00 0.00
2:04 am 02:04 Mostly Cloudy with Nearby Thunderstorms 80 26.7 61 16.1 52 52 SE 10 17 29.83 1010 10 16 0.00 0.00
2:35 am 02:35 Mostly Clear 78 25.6 61 16.1 56 56 S 12 19 29.83 1010 10 16 0.00 0.03
2:51 am 02:51 Clear 78 25.6 61 16.1 56 56 S 8 13 29.87 1012 10 16 0.00 0.03
3:51 am 03:51 Clear 76 24.4 60 15.6 58 58 NNE 9 15 29.83 1010 10 16 0.00 0.00
4:51 am 04:51 Clear 73 22.8 61 16.1 66 66 ENE 7 11 29.86 1011 10 16 0.00 0.00
5:51 am 05:51 Sunny 71 21.7 61 16.1 71 71 Calm 29.89 1012 10 16 0.00 0.00
6:51 am 06:51 Sunny 76 24.4 63 17.2 64 64 Calm 29.90 1012 10 16 0.00 0.00
7:51 am 07:51 Sunny 80 26.7 61 16.1 52 52 NNW 3 6 29.90 1012 10 16 0.00 0.00
8:51 am 08:51 Sunny 84 28.9 60 15.6 44 44 VRB 5 7 29.88 1012 10 16 0.00 0.00
9:51 am 09:51 Sunny 88 31.1 58 14.4 36 36 VRB 5 7 29.88 1012 10 16 0.00 0.00
10:51 am 10:51 Sunny 92 33.3 56 13.3 30 30 VRB 7 11 29.87 1011 10 16 0.00 0.00
11:51 am 11:51 Sunny 95 35 52 11.1 23 23 VRB 5 7 29.83 1010 10 16 0.00 0.00
12:51 pm 12:51 Sunny 97 36.1 52 11.1 22 22 VRB 3 6 29.79 1009 10 16 0.00 0.00
1:51 pm 13:51 Sunny 100 37.8 51 10.6 19 19 VRB 5 7 29.75 1008 10 16 0.00 0.00
2:51 pm 14:51 Sunny 103 39.4 48 8.9 16 16 undefined N/A 29.72 1006 10 16 0.00 0.00
3:51 pm 15:51 Sunny 101 38.3 48 8.9 17 17 SSW 6 9 29.71 1006 10 16 0.00 0.00
4:51 pm 16:51 Sunny 101 38.3 49 9.4 17 17 NNW 6 9 29.71 1006 10 16 0.00 0.00
5:51 pm 17:51 Partly Cloudy 98 36.7 51 10.6 20 20 NNE 15 24 29.70 1006 10 16 0.00 0.00
6:51 pm 18:51 Sunny 96 35.6 50 10 21 21 NE 8 13 29.70 1006 10 16 0.00 0.00
7:51 pm 19:51 Clear 94 34.4 50 10 22 22 NE 10 17 29.70 1006 10 16 0.00 0.00
8:51 pm 20:51 Clear 93 33.9 50 10 23 23 Calm 29.72 1007 10 16 0.00 0.00
9:51 pm 21:51 Clear 86 30 52 11.1 31 31 WSW 5 7 29.73 1007 10 16 0.00 0.00
10:51 pm 22:51 Clear 84 28.9 53 11.7 34 34 NNE 8 13 29.74 1007 10 16 0.00 0.00
11:51 pm 23:51 Clear 82 27.8 54 12.2 38 38 SW 7 11 29.75 1007 10 16 0.00 0.00

Powered by AerisWeather